Temp
1 0 0 -0 -1 -1 -1 -2 -2 -2 -2 -3 -3 -3 -3 -4 -5 -4 -4 -4 -4 -4 -4 -4 -4 -4 -4 -3 -4 -3 -3 -3 -3 -2 -2 -2 -2 -2 -2 -1 -2 -2 -3 -1
-0 -0 -0 -1 -2 -1 -1 -2 -3 -3 -3 -4 -3 -3 -4 -4 -5 -5 -5 -6 -6 -5 -5 -5 -5 -5 -4 -4 -4 -4 -4 -4 -3 -3 -3 -3 -3 -2 -2 -2 -2 -2 -5 -2
-0 -1 -1 -1 -2 -2 -3 -5 -4 -3 -3 -3 -4 -5 -6 -7 -6 -6 -6 -6 -6 -6 -5 -6 -5 -5 -5 -5 -4 -5 -5 -4 -3 -4 -3 -4 -3 -3 -2 -2 -3 -2 -2 -1
-1 -2 -2 -3 -3 -3 -5 -6 -5 -4 -4 -4 -5 -6 -6 -7 -7 -7 -7 -7 -7 -7 -7 -6 -6 -6 -6 -6 -5 -5 -6 -5 -5 -4 -4 -4 -4 -3 -3 -3 -3 -3 -2 -2
-4 -3 -3 -4 -4 -7 -7 -6 -5 -4 -5 -4 -5 -6 -6 -7 -8 -7 -8 -7 -7 -8 -8 -7 -7 -6 -6 -6 -6 -6 -6 -6 -6 -5 -5 -4 -4 -4 -4 -4 -4 -4 -4 -3
-4 -3 -5 -5 -8 -8 -6 -5 -5 -6 -6 -5 -6 -5 -6 -7 -8 -8 -7 -8 -8 -8 -8 -8 -8 -8 -7 -7 -7 -7 -7 -7 -7 -7 -6 -6 -6 -5 -4 -3 -3 -3 -4 -3
-4 -5 -6 -9 -8 -7 -6 -6 -6 -6 -6 -6 -7 -6 -7 -8 -8 -9 -9 -9 -8 -8 -8 -8 -8 -8 -8 -8 -7 -7 -8 -8 -8 -8 -7 -7 -5 -5 -4 -4 -4 -4 -5 -5
-6 -7 -9 -8 -7 -7 -6 -6 -6 -6 -6 -7 -7 -7 -8 -8 -9 -9 -10 -10 -9 -9 -10 -9 -9 -9 -8 -7 -7 -7 -8 -9 -8 -8 -7 -6 -5 -5 -5 -5 -4 -4 -4 -5
-9 -10 -9 -8 -7 -7 -7 -6 -7 -7 -7 -7 -8 -8 -8 -8 -9 -10 -11 -10 -10 -10 -10 -11 -10 -9 -8 -8 -8 -7 -8 -9 -8 -8 -8 -8 -6 -6 -6 -6 -6 -6 -6 -5
-11 -9 -8 -8 -8 -7 -7 -7 -7 -8 -8 -8 -8 -9 -9 -9 -10 -10 -11 -11 -11 -11 -11 -11 -11 -11 -10 -9 -9 -8 -8 -10 -9 -9 -9 -8 -7 -7 -7 -6 -6 -6 -7 -6
-10 -9 -9 -8 -8 -8 -8 -8 -8 -8 -8 -9 -9 -10 -10 -10 -10 -11 -11 -12 -12 -12 -12 -12 -12 -11 -10 -10 -10 -9 -9 -9 -9 -10 -10 -10 -9 -8 -8 -8 -7 -7 -7 -7
-11 -10 -10 -9 -9 -8 -8 -9 -9 -9 -9 -9 -10 -10 -11 -11 -11 -12 -12 -12 -12 -12 -12 -13 -12 -12 -12 -12 -11 -10 -10 -10 -10 -10 -9 -10 -10 -10 -10 -9 -9 -9 -9 -8
-10 -10 -11 -10 -9 -9 -9 -9 -9 -9 -10 -11 -11 -11 -12 -12 -12 -12 -13 -13 -14 -14 -14 -13 -13 -13 -13 -13 -13 -12 -11 -10 -11 -11 -10 -10 -9 -10 -10 -9 -10 -10 -11 -11
-11 -11 -10 -10 -10 -10 -10 -10 -10 -11 -11 -12 -12 -13 -13 -12 -13 -13 -14 -14 -14 -14 -14 -14 -14 -14 -14 -13 -13 -14 -13 -13 -12 -11 -11 -11 -10 -9 -10 -10 -10 -10 -11 -11
-11 -11 -11 -11 -11 -11 -11 -11 -12 -13 -12 -12 -13 -13 -13 -14 -14 -14 -14 -14 -14 -14 -15 -15 -15 -14 -14 -14 -15 -15 -13 -13 -13 -13 -13 -13 -13 -11 -10 -10 -10 -11 -11 -11
-11 -11 -12 -12 -12 -12 -12 -13 -13 -13 -13 -13 -13 -14 -14 -14 -14 -14 -14 -14 -14 -14 -15 -15 -15 -14 -15 -16 -15 -12 -13 -14 -15 -15 -14 -13 -13 -13 -12 -11 -11 -10 -11 -12
-12 -12 -13 -13 -13 -13 -13 -13 -14 -14 -14 -14 -14 -14 -14 -14 -14 -15 -15 -15 -15 -15 -15 -15 -15 -15 -15 -15 -15 -12 -14 -15 -14 -14 -14 -14 -13 -13 -13 -12 -11 -11 -11 -12
-13 -14 -14 -14 -14 -14 -14 -14 -14 -14 -14 -14 -14 -14 -15 -15 -15 -15 -15 -15 -15 -15 -15 -15 -15 -15 -15 -16 -14 -14 -14 -15 -14 -14 -14 -14 -13 -13 -13 -13 -13 -12 -10 -10
-14 -14 -14 -14 -14 -15 -15 -15 -14 -14 -15 -15 -15 -15 -15 -15 -16 -15 -15 -15 -15 -15 -15 -14 -16 -15 -16 -15 -15 -15 -15 -14 -12 -12 -13 -14 -14 -13 -13 -13 -13 -12 -12 -12
-15 -15 -15 -15 -15 -15 -15 -15 -15 -15 -15 -15 -15 -15 -16 -16 -16 -16 -16 -16 -16 -16 -15 -16 -16 -15 -15 -15 -16 -15 -14 -13 -13 -14 -14 -14 -14 -13 -13 -12 -12 -12 -12 -12
-15 -15 -15 -15 -15 -15 -15 -15 -15 -15 -15 -15 -15 -16 -16 -16 -16 -16 -16 -16 -16 -16 -15 -15 -15 -15 -14 -15 -15 -14 -13 -13 -14 -14 -14 -14 -13 -12 -12 -12 -12 -12 -12 -11
-16 -15 -16 -16 -16 -16 -16 -15 -15 -15 -15 -15 -16 -16 -16 -16 -16 -16 -16 -16 -16 -16 -16 -15 -15 -14 -14 -14 -14 -13 -13 -14 -14 -14 -13 -13 -12 -12 -11 -11 -11 -11 -11 -11
-16 -16 -16 -16 -16 -16 -15 -15 -15 -15 -15 -16 -16 -16 -16 -16 -16 -17 -17 -17 -16 -16 -15 -15 -14 -14 -14 -14 -14 -13 -14 -14 -13 -13 -12 -12 -11 -11 -9 -9 -10 -10 -11 -11
-16 -16 -16 -16 -16 -16 -15 -15 -15 -16 -16 -16 -16 -16 -17 -16 -16 -16 -17 -16 -16 -16 -15 -14 -14 -14 -14 -14 -14 -14 -14 -13 -13 -12 -11 -11 -11 -9 -9 -9 -10 -10 -10 -10
-16 -16 -16 -15 -15 -16 -16 -16 -16 -16 -16 -17 -17 -17 -17 -17 -17 -17 -17 -16 -16 -15 -14 -14 -14 -14 -15 -15 -14 -14 -14 -13 -12 -11 -11 -10 -10 -10 -10 -9 -10 -10 -11 -11
-16 -16 -15 -15 -16 -16 -16 -16 -17 -17 -17 -17 -17 -17 -17 -17 -17 -17 -16 -16 -15 -14 -14 -14 -15 -15 -15 -15 -14 -14 -14 -13 -12 -11 -10 -10 -10 -10 -10 -10 -10 -10 -10 -10
-16 -15 -16 -16 -16 -16 -16 -17 -17 -17 -18 -18 -18 -18 -17 -17 -17 -17 -16 -16 -15 -15 -15 -15 -15 -16 -15 -15 -14 -14 -13 -12 -12 -11 -10 -10 -10 -9 -9 -9 -9 -9 -10 -10
Height
3048 3050 3051 3052 3053 3055 3056 3056 3058 3057 3057 3059 3056 3057 3058 3060 3060 3061 3062 3062 3063 3064 3064 3064 3066 3066 3065 3064 3065 3064 3064 3062 3061 3062 3062 3061 3062 3063 3063 3062 3063 3063 3064 3062
3034 3037 3040 3040 3041 3043 3045 3045 3049 3049 3050 3051 3050 3051 3053 3053 3053 3056 3056 3056 3057 3059 3061 3062 3059 3060 3061 3063 3063 3061 3061 3060 3057 3057 3061 3059 3058 3060 3060 3060 3060 3059 3063 3061
3023 3025 3028 3031 3032 3034 3036 3038 3041 3042 3043 3044 3044 3046 3046 3047 3048 3049 3049 3051 3051 3053 3055 3057 3056 3057 3058 3059 3059 3060 3058 3056 3055 3053 3053 3055 3055 3054 3055 3056 3055 3055 3054 3058
3010 3015 3018 3019 3023 3024 3027 3031 3034 3034 3035 3038 3039 3042 3043 3043 3044 3045 3044 3045 3047 3049 3051 3051 3051 3052 3053 3054 3055 3055 3056 3052 3052 3051 3050 3049 3049 3049 3050 3050 3051 3050 3051 3050
3005 3009 3011 3011 3014 3016 3021 3026 3029 3030 3032 3032 3033 3035 3036 3039 3040 3041 3040 3041 3042 3044 3045 3046 3045 3046 3048 3048 3049 3050 3050 3050 3049 3045 3045 3043 3041 3042 3043 3043 3043 3042 3043 3040
3000 3002 3003 3004 3008 3014 3016 3021 3024 3026 3026 3027 3028 3029 3031 3032 3034 3035 3034 3035 3038 3038 3039 3041 3041 3041 3043 3044 3044 3045 3045 3044 3044 3041 3041 3037 3033 3032 3032 3033 3033 3035 3032 3035
2992 2995 2997 3000 3006 3010 3014 3016 3019 3020 3022 3022 3023 3025 3027 3029 3030 3032 3032 3032 3033 3035 3035 3035 3036 3035 3036 3037 3038 3038 3038 3040 3040 3038 3039 3034 3028 3027 3027 3027 3026 3026 3026 3027
2983 2987 2994 2998 3003 3007 3009 3011 3013 3015 3016 3017 3018 3020 3021 3023 3024 3025 3026 3026 3028 3030 3030 3031 3031 3030 3029 3029 3030 3029 3031 3034 3034 3035 3033 3026 3024 3024 3025 3023 3023 3022 3022 3022
2979 2985 2993 2998 3001 3004 3005 3008 3009 3011 3013 3013 3014 3015 3016 3017 3017 3020 3020 3022 3023 3025 3024 3026 3027 3027 3025 3025 3025 3024 3026 3027 3030 3030 3030 3024 3019 3020 3020 3019 3018 3017 3017 3018
2980 2985 2989 2993 2998 3002 3003 3004 3006 3007 3009 3009 3010 3011 3012 3014 3013 3014 3015 3017 3019 3021 3019 3020 3021 3020 3021 3020 3019 3021 3022 3022 3021 3025 3025 3019 3017 3017 3017 3017 3019 3014 3014 3015
2981 2986 2989 2993 2997 2999 3001 3000 3002 3003 3004 3005 3006 3007 3007 3009 3009 3010 3011 3013 3013 3015 3016 3017 3016 3015 3015 3014 3014 3017 3019 3017 3016 3018 3019 3015 3011 3014 3015 3013 3010 3010 3010 3010
2981 2984 2988 2990 2995 2995 2997 2997 2997 2998 3000 3000 3001 3001 3003 3004 3005 3006 3006 3008 3008 3009 3010 3011 3012 3010 3009 3008 3009 3011 3014 3011 3010 3012 3006 3005 3005 3006 3006 3008 3008 3007 3004 3004
2980 2982 2986 2989 2990 2991 2992 2992 2993 2993 2995 2995 2997 2998 2999 2999 2998 3000 3004 3004 3005 3006 3005 3006 3006 3006 3006 3005 3005 3006 3007 3006 3001 3001 2999 2999 2999 3001 3002 3003 3002 3000 2998 2997
2979 2981 2983 2985 2986 2986 2988 2987 2989 2990 2991 2992 2994 2993 2995 2996 2995 2995 2999 3000 3000 3001 3001 2999 2999 3000 3000 2997 2998 2997 2999 2997 2992 2987 2987 2990 2990 2993 2992 2993 2993 2991 2990 2989
2976 2978 2980 2981 2982 2983 2983 2983 2985 2986 2990 2990 2990 2990 2990 2992 2992 2994 2995 2995 2995 2994 2994 2993 2992 2992 2994 2990 2988 2985 2988 2985 2983 2976 2980 2976 2971 2974 2976 2975 2976 2977 2976 2976
2974 2976 2977 2977 2979 2979 2979 2982 2983 2983 2985 2988 2987 2988 2988 2989 2990 2991 2991 2990 2989 2988 2987 2986 2985 2987 2987 2981 2976 2972 2975 2974 2972 2967 2966 2963 2960 2960 2961 2958 2959 2962 2961 2962
2972 2972 2973 2975 2976 2977 2979 2981 2982 2982 2984 2985 2985 2985 2987 2988 2988 2988 2987 2985 2983 2982 2980 2978 2978 2978 2980 2973 2966 2965 2968 2964 2961 2959 2955 2949 2949 2944 2946 2945 2946 2947 2947 2948
2969 2971 2973 2974 2975 2977 2978 2979 2980 2981 2982 2983 2984 2985 2986 2987 2985 2983 2981 2978 2977 2974 2972 2971 2970 2970 2968 2962 2961 2961 2959 2956 2952 2948 2943 2937 2933 2930 2929 2930 2930 2930 2932 2935
2968 2970 2972 2974 2975 2976 2977 2978 2979 2980 2984 2981 2982 2983 2984 2984 2982 2979 2976 2973 2969 2967 2964 2964 2964 2960 2959 2959 2958 2957 2952 2944 2938 2933 2927 2923 2918 2914 2913 2913 2914 2915 2918 2921
2968 2970 2972 2973 2975 2976 2978 2978 2978 2978 2978 2978 2980 2981 2982 2982 2979 2976 2973 2968 2966 2962 2961 2960 2956 2953 2954 2954 2951 2944 2939 2934 2928 2918 2911 2907 2903 2900 2898 2898 2900 2902 2906 2909
2968 2970 2972 2973 2974 2976 2976 2976 2977 2977 2978 2979 2980 2980 2980 2978 2976 2973 2971 2968 2965 2961 2960 2958 2954 2951 2951 2947 2943 2938 2931 2924 2917 2909 2901 2895 2889 2885 2884 2885 2886 2889 2892 2896
2968 2970 2971 2973 2974 2975 2976 2975 2976 2976 2977 2978 2978 2978 2977 2976 2973 2970 2968 2965 2963 2958 2957 2955 2950 2948 2945 2941 2935 2928 2922 2914 2906 2899 2890 2885 2880 2876 2873 2873 2875 2878 2882 2889
2968 2970 2971 2972 2973 2974 2974 2974 2975 2975 2975 2976 2976 2976 2975 2972 2971 2967 2965 2962 2958 2957 2953 2949 2945 2943 2939 2932 2926 2920 2914 2904 2896 2889 2883 2878 2874 2868 2865 2866 2869 2873 2877 2883
2968 2969 2970 2971 2971 2972 2973 2973 2974 2974 2974 2974 2974 2973 2972 2970 2967 2965 2962 2959 2956 2952 2948 2944 2941 2938 2933 2927 2920 2911 2903 2896 2889 2882 2878 2875 2871 2866 2865 2867 2869 2872 2877 2883
2967 2968 2969 2969 2971 2971 2971 2972 2972 2972 2972 2971 2970 2969 2969 2966 2964 2961 2959 2955 2951 2947 2943 2940 2936 2933 2926 2918 2911 2904 2897 2890 2884 2880 2878 2876 2873 2870 2869 2870 2872 2874 2878 2883
2967 2967 2968 2969 2970 2970 2970 2970 2969 2969 2968 2968 2967 2965 2963 2960 2959 2957 2954 2951 2946 2943 2939 2936 2932 2926 2919 2912 2906 2899 2893 2887 2882 2879 2878 2877 2876 2875 2874 2875 2877 2879 2881 2885
2965 2966 2967 2967 2967 2967 2966 2966 2965 2964 2964 2963 2963 2963 2961 2958 2954 2951 2948 2946 2943 2939 2936 2933 2928 2919 2912 2906 2901 2895 2890 2885 2881 2879 2878 2877 2877 2877 2878 2879 2881 2883 2886 2889
Wind_Speed
47 43 42 46 45 39 34 36 30 22 19 17 17 19 19 17 19 18 14 13 17 16 15 9 8 9 8 8 9 4 7 6 7 10 9 9 13 21 17 6 5 3 1 4
48 52 48 48 39 40 38 29 24 21 19 17 20 18 18 17 18 17 14 12 13 15 17 10 13 17 20 20 16 7 6 6 4 3 8 11 15 18 17 16 10 10 6 3
58 56 55 39 34 37 31 22 18 19 20 21 19 16 16 15 12 11 14 16 15 16 17 15 9 12 11 15 16 18 16 14 11 8 3 5 7 9 18 21 15 16 22 12
56 49 38 29 34 29 20 21 20 19 13 14 17 17 13 12 10 11 11 8 9 12 10 9 13 14 17 18 18 13 13 18 22 25 26 19 19 21 16 17 22 17 26 27
40 31 30 30 26 17 21 22 21 18 17 16 16 17 20 21 17 17 15 13 13 12 14 14 14 9 14 13 11 14 14 17 22 26 26 29 32 33 29 28 29 32 32 37
29 29 27 22 18 20 19 18 19 17 16 17 17 18 15 15 16 18 18 19 17 17 17 17 17 18 20 18 17 16 20 17 15 14 17 20 20 27 33 34 36 37 37 36
26 23 20 18 19 18 17 17 19 20 19 17 14 15 15 16 15 17 14 14 15 17 18 18 19 22 22 23 25 21 22 18 14 14 16 8 14 10 13 17 20 19 24 24
24 21 19 18 17 18 20 19 18 18 18 15 15 15 15 15 17 19 18 19 18 16 17 18 15 15 19 22 20 22 22 19 11 7 9 18 19 14 16 17 18 17 15 17
20 20 19 18 18 15 13 15 15 16 14 15 15 15 15 16 17 16 16 15 14 14 14 12 7 7 5 5 5 7 13 19 22 9 6 4 0 3 8 8 10 13 15 18
22 21 19 15 15 15 13 12 12 13 13 15 14 16 15 15 13 13 15 16 15 12 12 13 13 14 13 9 9 7 9 13 22 25 15 12 17 15 18 14 11 16 17 17
18 15 15 13 12 9 11 11 11 12 13 13 13 14 14 14 14 14 14 13 14 12 11 9 11 10 9 11 19 24 18 9 11 17 13 13 14 14 12 10 12 15 18 20
17 15 15 11 9 11 11 10 10 11 11 10 9 9 13 15 14 16 15 16 12 9 9 11 9 11 8 11 9 12 9 13 13 12 10 12 7 5 9 10 14 17 20 24
16 11 9 11 13 10 10 10 10 10 9 10 9 10 11 12 13 13 14 13 16 19 20 20 20 21 17 17 16 22 24 20 26 28 34 37 27 27 21 19 20 23 26 26
10 12 13 11 10 9 10 10 10 7 6 6 7 5 5 7 10 12 9 9 12 16 18 20 21 24 18 25 26 27 27 29 34 42 46 44 43 42 39 35 32 34 32 28
12 12 11 10 10 9 9 8 6 4 4 4 4 6 6 6 7 14 14 14 15 15 18 20 23 25 25 30 31 35 29 31 35 40 34 35 39 42 49 50 49 47 44 42
11 11 10 9 8 6 5 4 1 2 3 2 2 4 4 5 5 6 10 13 15 18 20 21 24 25 24 25 35 35 27 26 29 34 29 33 37 38 41 46 49 54 50 49
9 7 6 5 5 4 3 3 2 3 2 3 2 4 6 4 8 11 12 15 16 18 22 29 30 30 26 34 43 20 28 18 21 26 29 35 34 40 38 41 45 48 52 50
7 7 6 6 5 4 5 3 2 1 2 1 4 2 4 5 11 13 12 13 13 17 21 25 27 27 26 25 24 20 17 31 31 29 32 39 42 44 44 42 42 39 41 46
8 8 8 6 5 6 3 2 2 3 3 2 1 3 2 7 11 16 18 18 19 18 20 18 15 17 15 14 16 19 30 35 39 43 43 39 38 40 39 39 40 41 38 38
11 10 8 6 4 3 2 3 6 8 5 2 0 1 3 10 14 17 19 10 8 11 11 10 11 19 11 12 27 40 41 42 42 42 41 38 37 35 34 33 34 36 36 39
11 9 6 3 3 3 3 4 2 0 2 2 2 3 9 12 16 18 9 8 6 6 4 5 6 7 3 24 34 39 47 47 42 38 37 37 37 37 32 28 28 30 33 35
9 6 5 4 3 3 2 2 2 3 3 3 2 8 12 16 17 14 6 7 5 5 7 6 5 8 15 30 38 44 47 41 37 33 31 29 26 26 27 22 21 23 25 26
6 5 4 3 4 3 2 3 3 3 4 4 7 9 15 18 15 10 6 5 7 8 6 5 7 12 29 41 48 45 38 35 31 25 18 17 20 21 14 11 14 16 19 21
5 4 3 2 2 2 3 4 3 4 5 9 12 13 16 18 15 6 6 6 7 5 5 6 13 35 41 45 43 40 37 32 26 17 12 12 13 8 4 2 7 10 12 15
5 2 2 3 3 2 4 5 5 7 11 12 15 18 19 20 8 6 6 5 6 6 6 19 33 41 48 45 40 37 34 29 21 13 7 8 10 9 6 3 5 10 13 15
3 2 3 2 2 6 7 9 11 14 13 15 18 17 10 10 5 6 7 5 6 9 23 33 41 46 43 39 36 33 30 25 18 10 6 4 8 8 9 9 9 12 13 18
2 3 3 6 8 10 11 14 16 15 16 16 14 7 5 7 8 8 9 13 19 26 33 39 41 40 38 36 32 29 26 20 15 7 3 3 4 1 7 8 9 11 10 14
Wind_Direction
269 279 280 277 278 277 279 281 279 270 264 254 246 246 251 248 241 251 251 248 241 247 243 240 251 237 259 268 297 281 241 249 254 276 263 241 229 230 227 216 197 189 147 252
269 275 278 277 283 271 271 269 258 253 251 244 249 246 247 253 246 245 246 237 242 244 249 254 251 256 258 261 265 257 253 237 249 227 236 230 227 231 228 230 220 204 161 241
274 277 273 288 281 271 260 242 242 241 244 247 247 247 248 254 254 248 238 244 248 245 246 239 245 238 260 266 258 263 253 244 234 221 172 294 271 252 236 235 232 222 221 232
278 271 282 270 263 255 231 231 237 238 241 238 240 240 243 242 235 246 255 251 248 238 240 250 244 248 255 261 265 253 268 260 262 259 266 274 272 263 249 238 244 248 252 255
266 278 264 255 243 210 218 225 233 238 244 246 244 237 244 241 236 241 245 249 248 241 242 239 246 250 245 250 246 267 266 273 282 282 276 267 268 267 265 261 257 256 262 267
265 267 255 241 204 210 219 225 235 238 245 245 244 246 248 244 239 249 252 251 246 241 249 247 248 260 259 261 256 255 276 279 287 284 291 278 268 254 257 265 267 267 261 270
257 255 238 193 200 206 211 223 232 239 242 247 251 246 243 247 248 255 255 252 250 254 256 258 253 257 263 263 263 266 265 272 266 273 277 259 262 252 255 256 264 272 266 267
235 216 186 189 198 205 214 219 228 237 244 245 245 243 242 244 246 252 257 260 264 260 258 269 276 272 274 270 260 248 249 239 248 249 235 267 262 248 265 265 273 271 265 259
182 170 182 194 204 204 213 221 224 230 235 245 248 250 248 250 247 243 242 254 270 266 259 262 243 232 226 243 247 230 227 228 236 246 265 255 37 345 324 306 261 268 255 247
169 187 189 185 200 207 211 216 224 231 233 239 241 242 254 254 247 238 243 250 260 258 254 237 238 242 229 236 222 207 210 218 231 246 251 263 255 265 289 276 259 257 251 241
182 176 187 195 206 215 231 230 232 238 241 246 251 250 250 250 248 243 241 253 256 252 235 233 233 242 228 249 246 245 250 235 228 236 239 256 255 239 243 253 243 251 253 245
177 185 195 194 218 236 242 245 247 250 246 242 245 244 248 252 254 253 250 248 251 233 213 223 226 237 229 237 238 209 232 216 228 227 228 191 185 276 250 205 219 234 245 250
193 182 192 221 233 244 260 263 264 258 256 258 256 243 246 248 250 254 255 248 247 242 247 247 255 263 264 268 268 262 250 236 260 264 251 247 240 260 263 260 257 267 276 277
185 206 231 239 249 261 268 267 265 258 247 241 236 209 227 248 242 230 233 251 268 263 261 261 259 266 272 274 276 273 271 274 266 264 262 265 255 254 260 251 250 262 271 267
220 230 237 249 261 263 263 267 267 256 239 181 225 250 258 253 237 238 261 270 263 265 261 259 267 273 273 276 279 277 286 284 281 282 284 276 271 254 249 255 251 253 259 259
228 234 242 256 255 254 253 229 245 198 128 122 172 214 230 256 259 259 271 276 268 260 262 265 270 279 279 277 284 302 302 299 297 291 286 278 278 276 258 252 247 245 255 260
231 237 232 224 226 218 193 179 142 141 97 98 159 142 141 280 294 293 287 275 270 265 266 269 276 280 282 279 278 310 308 298 295 292 287 281 277 274 268 265 261 255 250 256
212 197 192 194 193 168 166 160 155 106 8 73 137 171 284 319 335 330 326 307 293 286 285 279 280 284 282 273 292 301 313 308 306 305 294 284 282 278 271 266 263 258 252 255
176 177 177 154 146 158 174 185 231 272 267 277 266 318 334 341 339 334 334 323 305 291 282 291 287 276 251 285 301 319 324 328 317 309 299 293 284 279 273 267 260 256 248 248
162 167 156 152 157 168 211 277 284 284 277 219 76 76 340 327 333 335 329 301 301 284 300 292 274 279 306 266 333 343 335 326 319 311 304 298 289 284 278 270 263 257 251 248
174 173 177 180 185 237 274 271 242 211 151 160 151 338 328 329 332 328 314 288 278 273 284 256 264 283 350 330 329 322 323 324 314 307 301 295 292 291 285 273 260 250 247 240
178 189 196 203 227 246 222 236 212 184 201 187 298 321 330 334 334 328 304 278 257 256 279 263 245 205 309 319 319 320 321 316 314 310 301 295 293 291 286 275 250 239 239 233
176 184 197 198 206 211 217 206 204 201 211 244 306 314 327 334 331 301 265 255 247 282 243 248 234 262 318 322 323 315 320 321 322 315 309 308 307 303 290 253 229 227 216 202
181 175 189 196 186 193 232 230 251 235 255 286 293 302 320 326 322 270 258 257 279 254 249 250 296 323 322 318 322 326 328 331 330 328 331 339 342 5 7 192 191 192 191 189
177 189 192 190 169 230 240 228 251 279 281 275 285 297 307 312 273 249 257 248 246 247 270 310 318 319 320 323 327 330 331 336 336 336 340 17 36 51 63 94 142 156 175 178
207 217 160 162 267 272 271 265 273 285 279 277 289 299 296 291 241 242 247 247 245 266 300 307 311 317 321 323 328 331 332 337 339 334 325 12 46 68 94 108 126 145 148 151
190 144 302 287 288 287 282 267 279 277 281 287 287 273 264 268 254 238 246 255 272 284 295 306 315 319 321 323 327 331 334 340 345 342 294 317 350 50 137 126 138 158 141 151